Time,TemperatureF,DewpointF,PressureIn,WindDirection,WindDirectionDegrees,WindSpeedMPH,WindSpeedGustMPH,Humidity,HourlyPrecipIn,Conditions,Clouds,dailyrainin,SoftwareType,DateUTC
2013-03-11 00:02:00,9.0,8.0,-100.00,SE,135,0.0,0.0,94,0.00,,,-99.99,,2013-03-11 06:02:00,
2013-03-11 00:12:00,9.0,8.0,-100.00,SE,135,0.0,0.0,94,0.00,,,-99.99,,2013-03-11 06:12:00,
2013-03-11 00:22:00,8.0,7.0,-100.00,SSE,151,0.0,2.0,94,0.00,,,-99.99,,2013-03-11 06:22:00,
2013-03-11 00:32:00,7.0,6.0,-100.00,SE,129,2.0,3.0,94,0.00,,,-99.99,,2013-03-11 06:32:00,
2013-03-11 00:42:00,7.0,6.0,-100.00,SE,129,2.0,3.0,94,0.00,,,-99.99,,2013-03-11 06:42:00,
2013-03-11 00:53:00,8.0,7.0,-100.00,SE,136,2.0,3.0,97,0.00,,,-99.99,,2013-03-11 06:53:00,
2013-03-11 01:02:00,8.0,8.0,-100.00,SE,128,4.0,6.0,98,0.00,,,-99.99,,2013-03-11 07:02:00,
2013-03-11 01:12:00,8.0,8.0,-100.00,SE,131,3.0,3.0,98,0.00,,,-99.99,,2013-03-11 07:12:00,
2013-03-11 01:22:00,8.0,8.0,-100.00,SE,131,3.0,3.0,98,0.00,,,-99.99,,2013-03-11 07:22:00,
2013-03-11 01:32:00,7.0,7.0,-100.00,SSE,156,3.0,5.0,98,0.00,,,-99.99,,2013-03-11 07:32:00,
2013-03-11 01:42:00,7.0,7.0,-100.00,SSE,156,3.0,5.0,98,0.00,,,-99.99,,2013-03-11 07:42:00,
2013-03-11 01:52:00,7.0,7.0,-100.00,SE,125,4.0,4.0,99,0.00,,,-99.99,,2013-03-11 07:52:00,
2013-03-11 02:02:00,8.0,8.0,-100.00,ESE,121,3.0,5.0,99,0.00,,,-99.99,,2013-03-11 08:02:00,
2013-03-11 02:12:00,8.0,8.0,-100.00,ESE,121,3.0,5.0,99,0.00,,,-99.99,,2013-03-11 08:12:00,
2013-03-11 02:32:00,6.0,6.0,-100.00,SE,135,2.0,3.0,98,0.00,,,-99.99,,2013-03-11 08:32:00,
2013-03-11 02:42:00,6.0,6.0,-100.00,SE,135,2.0,3.0,98,0.00,,,-99.99,,2013-03-11 08:42:00,
2013-03-11 02:52:00,5.0,5.0,-100.00,SE,145,1.0,3.0,98,0.00,,,-99.99,,2013-03-11 08:52:00,
2013-03-11 03:02:00,7.0,7.0,-100.00,ESE,121,5.0,6.0,99,0.00,,,-99.99,,2013-03-11 09:02:00,
2013-03-11 03:12:00,7.0,7.0,-100.00,ESE,121,5.0,6.0,99,0.00,,,-99.99,,2013-03-11 09:12:00,
2013-03-11 03:22:00,7.0,7.0,-100.00,ESE,123,4.0,6.0,99,0.00,,,-99.99,,2013-03-11 09:22:00,
2013-03-11 03:32:00,6.0,6.0,-100.00,South,177,3.0,4.0,99,0.00,,,-99.99,,2013-03-11 09:32:00,
2013-03-11 03:42:00,6.0,6.0,-100.00,South,177,3.0,4.0,99,0.00,,,-99.99,,2013-03-11 09:42:00,
2013-03-11 03:52:00,6.0,6.0,-100.00,SE,132,3.0,5.0,99,0.00,,,-99.99,,2013-03-11 09:52:00,
2013-03-11 04:02:00,7.0,7.0,-100.00,SE,131,4.0,5.0,99,0.00,,,-99.99,,2013-03-11 10:02:00,
2013-03-11 04:12:00,7.0,7.0,-100.00,SE,131,4.0,5.0,99,0.00,,,-99.99,,2013-03-11 10:12:00,
2013-03-11 04:22:00,8.0,8.0,-100.00,ESE,120,7.0,9.0,99,0.00,,,-99.99,,2013-03-11 10:22:00,
2013-03-11 04:32:00,9.0,9.0,-100.00,SE,131,5.0,7.0,99,0.00,,,-99.99,,2013-03-11 10:32:00,
2013-03-11 04:42:00,9.0,9.0,-100.00,SE,131,5.0,7.0,99,0.00,,,-99.99,,2013-03-11 10:42:00,
2013-03-11 04:52:00,9.0,8.0,-100.00,South,173,3.0,6.0,96,0.00,,,-99.99,,2013-03-11 10:52:00,
2013-03-11 05:02:00,9.0,8.0,-100.00,SW,221,2.0,5.0,97,0.00,,,-99.99,,2013-03-11 11:02:00,
2013-03-11 05:12:00,9.0,8.0,-100.00,SW,221,2.0,5.0,97,0.00,,,-99.99,,2013-03-11 11:12:00,
2013-03-11 05:22:00,9.0,8.0,-100.00,SE,139,1.0,2.0,97,0.00,,,-99.99,,2013-03-11 11:22:00,
2013-03-11 05:32:00,9.0,9.0,-100.00,SSW,192,2.0,3.0,99,0.00,,,-99.99,,2013-03-11 11:32:00,
2013-03-11 05:53:00,9.0,9.0,-100.00,WNW,282,0.0,2.0,98,0.00,,,-99.99,,2013-03-11 11:53:00,
2013-03-11 06:02:00,9.0,9.0,-100.00,SE,127,0.0,1.0,98,0.00,,,-99.99,,2013-03-11 12:02:00,
2013-03-11 06:12:00,9.0,9.0,-100.00,SE,127,0.0,1.0,98,0.00,,,-99.99,,2013-03-11 12:12:00,
2013-03-11 06:22:00,9.0,9.0,-100.00,ESE,122,4.0,5.0,99,0.00,,,-99.99,,2013-03-11 12:22:00,
2013-03-11 06:32:00,10.0,10.0,-100.00,ESE,123,3.0,4.0,98,0.00,,,-99.99,,2013-03-11 12:32:00,
2013-03-11 06:42:00,10.0,10.0,-100.00,ESE,123,3.0,4.0,98,0.00,,,-99.99,,2013-03-11 12:42:00,
2013-03-11 06:53:00,11.0,11.0,-100.00,SSW,211,1.0,3.0,98,0.00,,,-99.99,,2013-03-11 12:53:00,
2013-03-11 07:02:00,9.0,9.0,-100.00,ESE,122,1.0,3.0,98,0.00,,,-99.99,,2013-03-11 13:02:00,
2013-03-11 07:12:00,9.0,9.0,-100.00,ESE,122,1.0,3.0,98,0.00,,,-99.99,,2013-03-11 13:12:00,
2013-03-11 07:22:00,9.0,8.0,-100.00,NNW,337,0.0,1.0,97,0.00,,,-99.99,,2013-03-11 13:22:00,
2013-03-11 07:32:00,9.0,9.0,-100.00,ESE,117,0.0,2.0,98,0.00,,,-99.99,,2013-03-11 13:32:00,
2013-03-11 07:42:00,9.0,9.0,-100.00,ESE,117,0.0,2.0,98,0.00,,,-99.99,,2013-03-11 13:42:00,
2013-03-11 07:52:00,10.0,10.0,-100.00,SSE,147,0.0,2.0,99,0.00,,,-99.99,,2013-03-11 13:52:00,
2013-03-11 08:02:00,11.0,11.0,-100.00,NW,311,1.0,3.0,98,0.00,,,-99.99,,2013-03-11 14:02:00,
2013-03-11 08:12:00,11.0,11.0,-100.00,NW,311,1.0,3.0,98,0.00,,,-99.99,,2013-03-11 14:12:00,
2013-03-11 08:22:00,13.0,13.0,-100.00,WNW,285,0.0,2.0,98,0.00,,,-99.99,,2013-03-11 14:22:00,
2013-03-11 08:32:00,15.0,15.0,-100.00,NNW,330,1.0,2.0,98,0.00,,,-99.99,,2013-03-11 14:32:00,
2013-03-11 08:42:00,15.0,15.0,-100.00,NNW,330,1.0,2.0,98,0.00,,,-99.99,,2013-03-11 14:42:00,
2013-03-11 08:53:00,15.0,14.0,-100.00,North,-999,0.0,1.0,96,0.00,,,-99.99,,2013-03-11 14:53:00,
2013-03-11 09:02:00,15.0,14.0,-100.00,WSW,240,2.0,4.0,95,0.00,,,-99.99,,2013-03-11 15:02:00,
2013-03-11 09:12:00,15.0,14.0,-100.00,WSW,240,2.0,4.0,95,0.00,,,-99.99,,2013-03-11 15:12:00,
2013-03-11 09:22:00,17.0,16.0,-100.00,South,170,0.0,1.0,95,0.00,,,-99.99,,2013-03-11 15:22:00,
2013-03-11 09:32:00,19.0,18.0,-100.00,SSW,212,3.0,5.0,95,0.00,,,-99.99,,2013-03-11 15:32:00,
2013-03-11 09:42:00,19.0,18.0,-100.00,SSW,212,3.0,5.0,95,0.00,,,-99.99,,2013-03-11 15:42:00,
2013-03-11 09:53:00,21.0,18.0,-100.00,SE,139,2.0,4.0,87,0.00,,,-99.99,,2013-03-11 15:53:00,
2013-03-11 10:02:00,24.0,21.0,-100.00,SE,128,2.0,3.0,87,0.00,,,-99.99,,2013-03-11 16:02:00,
2013-03-11 10:12:00,24.0,21.0,-100.00,SE,128,2.0,3.0,87,0.00,,,-99.99,,2013-03-11 16:12:00,
2013-03-11 10:22:00,26.0,21.0,-100.00,SE,125,2.0,3.0,81,0.00,,,-99.99,,2013-03-11 16:22:00,
2013-03-11 10:32:00,28.0,23.0,-100.00,South,180,0.0,3.0,81,0.00,,,-99.99,,2013-03-11 16:32:00,
2013-03-11 10:42:00,28.0,23.0,-100.00,South,180,0.0,3.0,81,0.00,,,-99.99,,2013-03-11 16:42:00,
2013-03-11 10:52:00,29.0,24.0,-100.00,ESE,117,0.0,0.0,82,0.00,,,-99.99,,2013-03-11 16:52:00,
2013-03-11 11:02:00,32.0,26.0,-100.00,NNW,337,0.0,2.0,79,0.00,,,-99.99,,2013-03-11 17:02:00,
2013-03-11 11:14:00,32.0,26.0,-100.00,NNW,337,0.0,2.0,79,0.00,,,-99.99,,2013-03-11 17:14:00,
2013-03-11 11:24:00,35.0,26.0,-100.00,ESE,109,1.0,3.0,70,0.00,,,-99.99,,2013-03-11 17:24:00,
2013-03-11 11:35:00,42.0,30.0,-100.00,SSE,167,3.0,4.0,61,0.00,,,-99.99,,2013-03-11 17:35:00,
2013-03-11 11:42:00,42.0,30.0,-100.00,SSE,167,3.0,4.0,61,0.00,,,-99.99,,2013-03-11 17:42:00,
2013-03-11 11:53:00,42.0,29.0,-100.00,SE,130,4.0,6.0,59,0.00,,,-99.99,,2013-03-11 17:53:00,
2013-03-11 12:02:00,40.0,27.0,-100.00,SSW,202,3.0,8.0,60,0.00,,,-99.99,,2013-03-11 18:02:00,
2013-03-11 12:12:00,40.0,27.0,-100.00,SSW,202,3.0,8.0,60,0.00,,,-99.99,,2013-03-11 18:12:00,
2013-03-11 12:22:00,37.0,26.0,-100.00,WSW,242,8.0,15.0,64,0.00,,,-99.99,,2013-03-11 18:22:00,
2013-03-11 12:32:00,36.0,26.0,-100.00,SW,228,5.0,11.0,68,0.00,,,-99.99,,2013-03-11 18:32:00,
2013-03-11 12:42:00,36.0,26.0,-100.00,SW,228,5.0,11.0,68,0.00,,,-99.99,,2013-03-11 18:42:00,
2013-03-11 12:52:00,35.0,22.0,-100.00,WSW,249,3.0,6.0,59,0.00,,,-99.99,,2013-03-11 18:52:00,
2013-03-11 13:02:00,37.0,26.0,-100.00,SW,216,2.0,4.0,65,0.00,,,-99.99,,2013-03-11 19:02:00,
2013-03-11 13:12:00,37.0,26.0,-100.00,SW,216,2.0,4.0,65,0.00,,,-99.99,,2013-03-11 19:12:00,
2013-03-11 13:22:00,38.0,30.0,-100.00,SW,217,3.0,6.0,73,0.00,,,-99.99,,2013-03-11 19:22:00,
2013-03-11 13:32:00,37.0,27.0,-100.00,SSW,205,1.0,5.0,68,0.00,,,-99.99,,2013-03-11 19:32:00,
2013-03-11 13:42:00,37.0,27.0,-100.00,SSW,205,1.0,5.0,68,0.00,,,-99.99,,2013-03-11 19:42:00,
2013-03-11 13:53:00,38.0,27.0,-100.00,West,275,3.0,6.0,63,0.00,,,-99.99,,2013-03-11 19:53:00,
2013-03-11 14:02:00,40.0,28.0,-100.00,North,1,1.0,4.0,63,0.00,,,-99.99,,2013-03-11 20:02:00,
2013-03-11 14:12:00,40.0,28.0,-100.00,North,1,1.0,4.0,63,0.00,,,-99.99,,2013-03-11 20:12:00,
2013-03-11 14:22:00,38.0,25.0,-100.00,West,267,8.0,13.0,60,0.00,,,-99.99,,2013-03-11 20:22:00,
2013-03-11 14:32:00,37.0,24.0,-100.00,West,267,6.0,10.0,60,0.00,,,-99.99,,2013-03-11 20:32:00,
2013-03-11 14:43:00,37.0,24.0,-100.00,West,267,6.0,10.0,60,0.00,,,-99.99,,2013-03-11 20:43:00,
2013-03-11 14:53:00,38.0,28.0,-100.00,NW,318,3.0,7.0,66,0.00,,,-99.99,,2013-03-11 20:53:00,
2013-03-11 15:02:00,36.0,31.0,-100.00,NNW,337,5.0,8.0,81,0.00,,,-99.99,,2013-03-11 21:02:00,
2013-03-11 15:12:00,36.0,31.0,-100.00,NNW,337,5.0,8.0,81,0.00,,,-99.99,,2013-03-11 21:12:00,
2013-03-11 15:22:00,35.0,24.0,-100.00,West,273,3.0,5.0,63,0.00,,,-99.99,,2013-03-11 21:22:00,
2013-03-11 15:32:00,34.0,25.0,-100.00,WNW,294,4.0,6.0,70,0.01,,,-99.99,,2013-03-11 21:32:00,
2013-03-11 15:43:00,34.0,25.0,-100.00,WNW,294,4.0,6.0,70,0.01,,,-99.99,,2013-03-11 21:43:00,
2013-03-11 15:53:00,32.0,25.0,-100.00,NW,306,2.0,6.0,74,0.01,,,-99.99,,2013-03-11 21:53:00,
2013-03-11 16:02:00,32.0,25.0,-100.00,SW,226,1.0,3.0,75,0.01,,,-99.99,,2013-03-11 22:02:00,
2013-03-11 16:12:00,32.0,25.0,-100.00,SW,226,1.0,3.0,75,0.01,,,-99.99,,2013-03-11 22:12:00,
2013-03-11 16:22:00,32.0,27.0,-100.00,SW,218,2.0,5.0,83,0.01,,,-99.99,,2013-03-11 22:22:00,
2013-03-11 16:32:00,31.0,26.0,-100.00,SSE,151,1.0,3.0,83,0.00,,,-99.99,,2013-03-11 22:32:00,
2013-03-11 16:43:00,31.0,26.0,-100.00,SSE,151,1.0,3.0,83,0.00,,,-99.99,,2013-03-11 22:43:00,
2013-03-11 16:53:00,32.0,29.0,-100.00,SE,128,2.0,3.0,87,0.00,,,-99.99,,2013-03-11 22:53:00,
2013-03-11 17:02:00,33.0,30.0,-100.00,ESE,113,4.0,6.0,87,0.00,,,-99.99,,2013-03-11 23:02:00,
2013-03-11 17:12:00,33.0,30.0,-100.00,ESE,113,4.0,6.0,87,0.00,,,-99.99,,2013-03-11 23:12:00,
2013-03-11 17:22:00,33.0,29.0,-100.00,ESE,115,5.0,7.0,86,0.00,,,-99.99,,2013-03-11 23:22:00,
2013-03-11 17:32:00,33.0,29.0,-100.00,SE,142,2.0,5.0,85,0.00,,,-99.99,,2013-03-11 23:32:00,
2013-03-11 17:43:00,33.0,29.0,-100.00,SE,142,2.0,5.0,85,0.00,,,-99.99,,2013-03-11 23:43:00,
2013-03-11 17:52:00,33.0,29.0,-100.00,SE,142,2.0,5.0,85,0.00,,,-99.99,,2013-03-11 23:52:00,
2013-03-11 18:02:00,33.0,29.0,-100.00,SE,142,2.0,5.0,85,0.00,,,-99.99,,2013-03-12 00:02:00,
2013-03-11 18:23:00,32.0,26.0,-100.00,WSW,243,5.0,8.0,79,0.00,,,-99.99,,2013-03-12 00:23:00,
2013-03-11 18:33:00,31.0,26.0,-100.00,SW,227,4.0,6.0,80,0.00,,,-99.99,,2013-03-12 00:33:00,
2013-03-11 18:43:00,31.0,26.0,-100.00,SW,227,4.0,6.0,80,0.00,,,-99.99,,2013-03-12 00:43:00,
2013-03-11 18:53:00,31.0,25.0,-100.00,WSW,237,4.0,9.0,79,0.00,,,-99.99,,2013-03-12 00:53:00,
2013-03-11 19:02:00,31.0,25.0,-100.00,West,262,8.0,17.0,79,0.00,,,-99.99,,2013-03-12 01:02:00,
2013-03-11 19:12:00,31.0,25.0,-100.00,West,262,8.0,17.0,79,0.00,,,-99.99,,2013-03-12 01:12:00,
2013-03-11 19:22:00,30.0,24.0,-100.00,West,275,8.0,12.0,77,0.00,,,-99.99,,2013-03-12 01:22:00,
2013-03-11 19:32:00,30.0,24.0,-100.00,WSW,254,7.0,11.0,77,0.00,,,-99.99,,2013-03-12 01:32:00,
2013-03-11 19:42:00,30.0,24.0,-100.00,WSW,254,7.0,11.0,77,0.00,,,-99.99,,2013-03-12 01:42:00,
2013-03-11 19:52:00,29.0,24.0,-100.00,WNW,282,3.0,6.0,80,0.00,,,-99.99,,2013-03-12 01:52:00,
2013-03-11 20:02:00,29.0,25.0,-100.00,SE,144,1.0,3.0,83,0.00,,,-99.99,,2013-03-12 02:02:00,
2013-03-11 20:12:00,29.0,25.0,-100.00,SE,144,1.0,3.0,83,0.00,,,-99.99,,2013-03-12 02:12:00,
2013-03-11 20:22:00,29.0,25.0,-100.00,SE,144,1.0,3.0,83,0.00,,,-99.99,,2013-03-12 02:22:00,
2013-03-11 20:32:00,28.0,24.0,-100.00,SW,217,2.0,4.0,84,0.00,,,-99.99,,2013-03-12 02:32:00,
2013-03-11 20:42:00,28.0,24.0,-100.00,SW,217,2.0,4.0,84,0.00,,,-99.99,,2013-03-12 02:42:00,
2013-03-11 20:52:00,29.0,25.0,-100.00,SW,227,3.0,6.0,85,0.00,,,-99.99,,2013-03-12 02:52:00,
2013-03-11 21:02:00,28.0,24.0,-100.00,West,268,1.0,3.0,85,0.00,,,-99.99,,2013-03-12 03:02:00,
2013-03-11 21:12:00,28.0,24.0,-100.00,West,268,1.0,3.0,85,0.00,,,-99.99,,2013-03-12 03:12:00,
2013-03-11 21:22:00,28.0,24.0,-100.00,SW,236,3.0,7.0,86,0.00,,,-99.99,,2013-03-12 03:22:00,
2013-03-11 21:32:00,28.0,24.0,-100.00,WNW,288,3.0,6.0,85,0.00,,,-99.99,,2013-03-12 03:32:00,
2013-03-11 21:42:00,28.0,24.0,-100.00,WNW,288,3.0,6.0,85,0.00,,,-99.99,,2013-03-12 03:42:00,
2013-03-11 21:53:00,27.0,23.0,-100.00,ESE,117,1.0,3.0,83,0.00,,,-99.99,,2013-03-12 03:53:00,
2013-03-11 22:02:00,27.0,23.0,-100.00,SSE,163,1.0,5.0,86,0.00,,,-99.99,,2013-03-12 04:02:00,
2013-03-11 22:12:00,27.0,23.0,-100.00,SSE,163,1.0,5.0,86,0.00,,,-99.99,,2013-03-12 04:12:00,
2013-03-11 22:22:00,27.0,23.0,-100.00,NW,304,5.0,12.0,86,0.00,,,-99.99,,2013-03-12 04:22:00,
2013-03-11 22:32:00,28.0,24.0,-100.00,NW,316,9.0,16.0,85,0.00,,,-99.99,,2013-03-12 04:32:00,
2013-03-11 22:42:00,28.0,24.0,-100.00,NW,316,9.0,16.0,85,0.00,,,-99.99,,2013-03-12 04:42:00,
2013-03-11 22:52:00,27.0,24.0,-100.00,NW,313,8.0,16.0,89,0.00,,,-99.99,,2013-03-12 04:52:00,
2013-03-11 23:02:00,27.0,24.0,-100.00,NW,325,11.0,21.0,89,0.00,,,-99.99,,2013-03-12 05:02:00,
2013-03-11 23:12:00,27.0,24.0,-100.00,NW,325,11.0,21.0,89,0.00,,,-99.99,,2013-03-12 05:12:00,
2013-03-11 23:22:00,28.0,23.0,-100.00,NNW,327,13.0,18.0,81,0.00,,,-99.99,,2013-03-12 05:22:00,
2013-03-11 23:32:00,27.0,23.0,-100.00,NW,326,12.0,17.0,86,0.00,,,-99.99,,2013-03-12 05:32:00,
2013-03-11 23:42:00,27.0,23.0,-100.00,NW,326,12.0,17.0,86,0.00,,,-99.99,,2013-03-12 05:42:00,
2013-03-11 23:52:00,27.0,25.0,-100.00,NNW,332,10.0,19.0,93,0.00,,,-99.99,,2013-03-12 05:52:00,